Overview Statistics Trail Chart Weather Telemetry Raw packets
 

This is the latest recevied weather packets stored in our database for station/object K7SKM. If no packets are shown the sender has not sent any weather packets the latest 10 day(s).

<< 98 99 100 101 102 103 104 >>
Time Temp. Humidity Pressure Rain* Wind** Luminosity Snow
1787943543 19.44° C 64% 1022.8 hPa 0 mm - 127 W/m² -
1787943238 19.44° C 64% 1022.8 hPa 0 mm - 129 W/m² -
1787942937 19.44° C 64% 1022.7 hPa 0 mm - 130 W/m² -
1787942634 18.89° C 66% 1023 hPa 0 mm - 121 W/m² -
1787942333 18.89° C 65% 1022.9 hPa 0 mm - 121 W/m² -
1787942028 20° C 63% 1022.8 hPa 0 mm - 125 W/m² -
1787941723 20° C 63% 1022.8 hPa 0 mm - 145 W/m² -
1787941422 19.44° C 64% 1022.9 hPa 0 mm - 158 W/m² -
1787941121 18.89° C 66% 1022.7 hPa 0 mm - 149 W/m² -
1787940817 19.44° C 65% 1022.9 hPa 0 mm - 122 W/m² -
1787940514 18.89° C 65% 1023 hPa 0 mm - 116 W/m² -
1787940213 19.44° C 65% 1022.8 hPa 0 mm - 120 W/m² -
1787939911 18.89° C 67% 1022.9 hPa 0 mm - 118 W/m² -
1787939607 18.89° C 67% 1022.8 hPa 0 mm - 121 W/m² -
1787939302 18.89° C 67% 1022.9 hPa 0 mm - 126 W/m² -
1787938997 18.89° C 67% 1023 hPa 0 mm - 124 W/m² -
1787938696 18.89° C 66% 1023 hPa 0 mm - 117 W/m² -
1787938393 18.89° C 66% 1023 hPa 0 mm - 112 W/m² -
1787938088 18.89° C 67% 1023.1 hPa 0 mm - 112 W/m² -
1787937783 18.89° C 67% 1023 hPa 0 mm - 118 W/m² -
1787937479 18.89° C 68% 1023 hPa 0 mm - 117 W/m² -
1787937174 18.33° C 69% 1022.8 hPa 0 mm - 114 W/m² -
1787936869 17.78° C 69% 1023 hPa 0 mm - 108 W/m² -
1787936568 18.33° C 68% 1023 hPa 0 mm - 116 W/m² -
1787936268 18.33° C 69% 1023 hPa 0 mm - 119 W/m² -

* Rain latest hour (hover to see other rain measurements)
** Current wind speed in m/s (hover to see current wind gust speed)